Regional Weather Roundup
Issued by NWS

Home | Current Version | Previous Version | Text Only | Print | Product List | Glossary On
Versions: 1 2 3 4 5 6 7 8 9 10 11 12 13 14 15 16 17 18 19 20 21 22 23 24 25 26 27 28 29 30 31 32 33 34 35 36 37 38 39 40 41 42 43 44 45 46 47 48 49 50
000
ASUS42 KKEY 260510
RWRKEY

FLORIDA REGIONAL WEATHER ROUNDUP FOR THE FLORIDA KEYS
NATIONAL WEATHER SERVICE KEY WEST FLORIDA
100 AM EDT SAT JUL 26 2014

...SOUTH FLORIDA AND THE KEYS...

CITY           SKY/WX    TMP DP  RH WIND       PRES   REMARKS
FORT MYERS     PTCLDY    77  75  93 CALM      30.07F
SW REGIONAL AP PTCLDY    77  73  87 S3        30.08F
NAPLES         PTCLDY    78  76  93 NE6       30.07S
MIAMI          PTCLDY    82  76  81 CALM      30.09R
WEST KENDALL   PTCLDY    83  76  79 CALM      30.09R HX  91
HOMESTEAD      CLEAR     80  77  91 S2        30.09S
MARATHON       CLEAR     86  76  71 SE9       30.08F HX  96
BOCA CHICA NAS MOCLDY    86  77  74 SE10      30.08S HX  97
KEY WEST INTL  LGT RAIN  86  77  74 SE9       30.09R HX  97

...INTERNATIONAL WEATHER...

CITY           SKY/WX    TMP DP  RH WIND       PRES   REMARKS
NASSAU BAHAMAS PTCLDY    82  73  74 SE6       30.11F
CANCUN MEXICO  CLEAR     79  77  94 CALM      30.07R
COZUMEL MEXICO CLEAR     75  75 100 CALM      30.06S

ADJACENT COASTAL WATERS...

STATION/POSITION TIME  SKY/WX   TEMP    WIND        PRES    WAVE
                                AIR SEA DIR/SP/G            HT/PER
                 (UTC)          (F)     (DEG/KT/KT) (MB)    (FT/S)
PULASKI SHOAL LI 0500            86     120/  8/  9 1018.3F
SAND KEY         0500            85     110/ 12/ 13 1018.8R
SOMBRERO KEY     0500            85     110/ 13/ 14 1019.5F
LONG KEY         0500            85 89  150/ 10/ 12 1019.6S
MOLASSES REEF    0500            85 86  140/  9/ 10 1018.8S
FOWEY ROCKS      0500            85 87  130/ 10/ 11 1019.2R
Buoy 42080       NOT AVBL

$$


USA.gov is the U.S. government's official web portal to all federal, state and local government web resources and services.